User: anonymous   Login
Location: Ljubljana
(46.0552°N, 14.5144°E)
Time: 17:21:10
(UTC+02:00)
Language:

ISS - Orbit

View from above orbital plane
View from above orbital plane
View from above satellite
View from above satellite

Ground track
Ground track

The orbit data is extracted from the following two-line orbital elements,

1 25544U 98067A   21137.40145537  .00001439  00000-0  34257-4 0  9995
2 25544  51.6433 134.9944 0003107  11.2543 133.8911 15.49014609283823
Epoch (UTC): 17 May 2021 09:38:05
Eccentricity: 0.0003107
inclination: 51.6433°
perigee height: 417 km
apogee height: 422 km
right ascension of ascending node: 134.9944°
argument of perigee: 11.2543°
revolutions per day: 15.49014609
mean anomaly at epoch: 133.8911°
orbit number at epoch: 28382

The dashed part of the orbit path shows where the satellite is in the earth's shadow,  

DLR